Location: Newark
(48.1500°N, 2.9667°W)
Time: 10:35:43
(UTC+00:00)

A-11 Canister half - Pass Details

Date: 27 January 2020
Orbit: 1517 x 1683 km, 47.2° (Epoch: 19 February)

Event Time Altitude Azimuth Distance (km) Brightness Sun altitude
Exits shadow 06:17:52 18° 269° (W) 3,093 10.0 -14.8°
Maximum altitude 06:23:03 30° 224° (SW) 2,468 9.8 -14.0°
Drops below altitude 10° 06:30:45 10° 168° (SSE) 3,716 11.4 -12.7°
Sets 06:34:18 0° 158° (SSE) 4,717 12.1 -12.1°
